RH
103 102 98 94 89 84 78 73 71 72 71 68 65 58 44 30 19 17 19 22 30 38 37 33 30 30 30 31 32 33 37 42 44 47 49 49 49 48 46 46 57 67 55 41 46 51 51 56 53 35 27 25 16 11 8 8 12 13 13 14 17 34 45
102 101 97 91 87 83 78 73 70 69 67 62 56 46 33 23 20 20 23 28 33 34 32 29 28 28 31 34 36 37 41 44 47 50 51 52 54 52 49 48 50 56 59 49 43 47 52 63 68 49 34 37 31 21 16 10 13 19 18 16 22 41 56
101 101 97 89 84 81 77 72 68 66 63 58 50 39 29 25 24 26 28 31 32 30 28 27 27 29 33 37 38 40 44 48 52 56 56 56 58 59 56 53 52 54 59 58 52 52 54 62 72 59 42 43 44 36 29 19 14 23 29 26 28 49 73
100 101 100 94 85 78 75 71 67 62 59 56 48 38 29 25 25 27 29 29 28 27 25 25 27 31 35 37 39 43 49 55 59 62 62 59 60 63 60 55 56 58 57 57 58 58 58 59 65 64 54 49 48 43 39 37 36 34 37 42 43 56 81
100 100 101 100 94 85 76 70 67 63 60 56 52 45 36 29 25 24 25 24 24 23 24 26 29 32 35 37 41 46 52 57 61 62 63 64 63 65 64 61 63 65 64 62 58 55 56 59 66 72 67 58 53 47 44 57 74 66 48 52 65 73 86
100 100 100 100 100 97 88 76 67 62 60 58 56 52 46 39 33 28 24 23 22 23 26 29 30 32 35 39 43 46 52 58 60 62 65 67 69 70 70 71 72 73 75 73 65 57 54 59 71 78 75 70 64 56 52 64 90 97 75 61 74 91 96
100 100 100 100 100 101 99 92 81 69 62 58 56 54 52 48 44 40 35 31 29 29 30 31 32 34 38 42 43 45 51 59 62 65 66 67 70 73 75 79 80 81 82 77 74 74 68 64 72 77 76 77 75 69 68 72 84 101 99 77 70 89 102
101 101 102 101 100 100 100 100 97 89 77 67 60 55 53 51 48 45 43 39 37 35 33 32 33 36 39 41 43 45 51 60 65 67 66 67 73 79 84 90 90 90 90 83 80 86 85 78 80 82 81 82 82 78 77 79 81 90 101 95 78 79 95
101 102 102 101 100 100 101 100 100 101 96 85 73 63 57 54 51 48 46 43 41 38 36 36 34 36 40 43 46 50 54 61 67 67 66 72 82 91 96 99 98 97 97 93 88 89 91 91 91 92 91 92 92 85 77 82 90 90 93 101 94 82 88
100 100 101 100 97 97 101 102 100 100 101 99 93 82 72 64 58 54 51 48 46 44 43 42 40 38 42 46 51 55 59 63 66 67 72 81 90 98 101 100 99 99 100 99 97 95 96 98 96 95 97 96 94 94 89 84 88 90 89 97 101 94 90
101 101 102 102 98 94 95 100 102 101 100 100 101 99 93 84 74 66 60 56 53 50 48 48 47 45 46 50 56 59 62 65 68 75 86 91 94 99 101 99 99 100 100 100 100 99 100 100 96 93 95 93 88 90 92 84 76 79 88 95 99 99 96
102 102 103 103 102 98 93 92 97 101 102 100 100 101 101 98 94 86 77 70 66 62 58 56 55 55 55 56 58 60 63 69 76 88 97 96 95 100 101 100 100 100 100 100 100 100 100 98 95 92 93 95 90 85 88 88 78 72 78 89 94 97 98
100 99 99 99 101 103 98 92 89 94 101 101 99 100 101 101 102 100 95 90 85 81 77 73 70 70 71 72 72 69 68 75 87 95 97 95 96 100 100 99 100 101 100 100 100 101 100 99 98 96 96 98 96 89 88 93 91 81 80 85 89 92 96
95 94 93 94 98 101 103 99 90 88 94 98 97 98 100 102 102 102 101 100 98 94 91 89 86 84 85 88 91 87 83 86 93 96 94 95 97 97 98 100 100 95 91 91 94 98 99 100 99 96 95 97 98 97 95 97 100 97 94 93 88 89 96
91 90 89 91 94 96 102 104 98 92 90 92 94 93 93 95 97 100 101 99 99 100 99 96 94 92 92 95 98 99 96 95 94 94 95 99 100 96 96 98 95 89 86 89 93 96 97 100 100 98 95 91 93 99 101 100 101 101 101 101 96 92 96
92 89 86 89 91 90 94 101 102 100 94 91 93 92 89 86 83 87 92 94 96 100 101 101 99 96 95 96 98 100 101 98 94 94 99 101 100 99 98 95 91 89 92 97 100 100 98 97 99 101 98 92 90 96 102 103 102 100 98 99 100 97 95
93 91 87 89 89 84 84 89 97 104 102 96 92 90 90 88 79 74 78 88 96 99 101 103 102 98 95 93 94 98 102 100 94 94 101 102 99 101 99 94 93 96 99 101 102 102 102 99 99 101 101 99 97 99 102 101 99 98 96 97 100 100 95
92 91 88 88 89 86 81 82 90 98 101 101 98 91 88 89 86 80 79 87 93 95 98 102 102 101 97 91 91 96 101 101 96 94 97 98 98 101 98 93 97 102 102 102 102 102 102 101 102 101 100 99 99 100 101 99 97 98 99 98 96 96 98
90 91 90 88 91 95 93 89 91 93 94 97 99 96 90 86 87 88 89 91 90 90 96 99 97 99 99 93 91 95 99 101 99 94 92 92 92 92 89 90 99 103 101 101 101 101 101 101 102 101 98 97 98 100 100 99 99 99 101 97 89 89 97
91 95 96 95 97 102 102 98 96 96 94 93 94 95 93 88 86 88 91 94 93 91 96 98 95 96 99 97 92 92 97 100 98 93 92 91 88 83 83 91 101 103 101 101 101 101 102 102 101 100 97 97 100 101 98 97 100 100 98 96 91 89 92
97 101 100 100 101 102 102 100 99 100 100 97 94 94 92 89 88 87 88 91 93 92 95 98 98 98 100 100 95 91 92 94 94 91 90 87 83 81 86 95 100 101 101 102 101 102 102 101 100 100 98 99 100 98 94 94 99 99 96 96 96 92 89
100 101 101 102 101 101 102 103 101 100 101 101 99 97 93 90 89 88 85 84 87 91 93 96 98 98 98 100 99 95 90 89 91 91 89 85 83 85 91 96 96 97 100 100 100 102 102 101 100 100 99 100 99 96 93 95 99 100 97 97 98 96 91
99 99 101 102 101 99 101 102 101 100 100 101 101 101 98 95 92 90 86 81 80 85 89 90 93 95 96 97 100 100 96 94 95 95 91 88 89 93 97 99 96 95 96 97 100 101 100 99 100 100 100 100 100 99 98 99 101 100 98 99 100 101 98
98 99 100 99 97 97 100 100 100 100 100 100 101 101 101 99 97 94 90 84 81 84 87 90 94 97 99 100 100 100 99 99 100 99 97 95 96 99 101 101 99 97 98 99 101 101 98 95 96 98 99 99 101 102 101 100 100 97 96 99 100 101 101
94 95 98 97 93 93 100 102 100 100 101 101 100 100 101 102 101 98 93 89 85 84 85 89 94 97 100 101 101 100 100 100 100 101 99 99 100 101 102 102 99 98 100 100 99 100 99 94 90 94 100 101 100 100 99 101 102 98 96 99 101 100 101
87 87 92 97 95 91 94 101 101 100 101 102 101 101 101 101 101 100 97 91 86 83 81 83 87 91 94 97 98 98 99 99 101 102 101 99 99 99 100 101 99 100 101 98 93 92 92 89 89 95 101 102 100 99 100 102 102 101 100 101 101 101 101
85 82 83 92 97 94 91 95 99 99 99 100 102 102 102 102 102 102 100 97 92 88 85 84 84 86 88 91 92 91 91 91 93 97 99 101 101 101 100 97 96 98 99 94 89 89 90 90 95 100 102 101 100 101 102 102 99 98 101 102 101 102 102
87 83 79 82 89 93 92 93 96 98 95 95 98 101 102 103 103 101 101 101 98 96 94 92 90 89 88 89 90 89 89 88 87 88 90 92 95 98 100 99 97 98 98 95 94 97 98 98 100 102 102 102 103 100 99 100 100 99 99 98 99 101 102
93 87 81 78 80 87 92 93 96 98 96 94 96 99 101 102 101 101 101 101 100 100 99 98 98 97 97 97 97 97 97 96 94 93 91 90 90 92 94 97 98 99 99 99 100 101 101 100 101 101 102 103 102 97 96 99 102 102 99 96 96 99 101
97 91 85 80 79 84 92 96 98 99 99 98 98 100 101 101 101 101 101 100 100 101 102 100 99 97 97 99 100 101 101 101 100 100 99 98 97 95 94 95 97 98 98 99 100 101 100 98 97 98 100 102 101 97 97 100 101 101 101 99 97 98 101
97 94 90 85 81 83 92 100 101 99 100 100 99 100 102 102 100 101 100 100 101 102 101 97 93 90 90 93 97 100 102 102 101 101 101 101 101 101 100 99 99 100 100 100 101 101 100 97 93 93 98 101 100 98 99 101 102 102 103 101 98 99 101
92 92 92 89 85 83 88 97 101 100 100 101 101 101 102 100 99 101 100 100 102 102 98 92 88 85 86 90 95 98 99 100 102 103 102 102 101 102 102 101 100 100 100 101 101 101 102 100 96 95 98 100 99 99 101 101 101 103 104 102 99 100 102
89 89 90 89 88 86 88 95 101 101 100 100 101 102 102 99 98 100 101 101 102 100 96 92 88 85 85 89 94 96 95 95 99 102 102 102 101 101 101 101 101 101 100 100 100 100 101 101 98 97 100 100 100 101 101 100 101 103 103 101 101 101 102
96 93 91 89 89 90 93 98 101 100 100 101 100 101 102 100 97 97 100 103 103 100 96 93 90 87 89 93 95 95 93 94 97 100 102 102 102 102 101 100 101 101 101 101 101 100 100 101 99 99 100 100 101 101 99 98 99 99 97 97 98 101 102
100 95 90 89 90 92 96 101 103 101 100 100 100 100 101 100 96 93 94 98 102 103 101 97 93 92 95 98 98 95 94 94 95 97 99 100 101 103 102 100 101 102 102 101 101 101 100 100 99 100 100 100 101 102 101 98 94 90 90 91 92 95 99
98 94 91 89 88 89 93 98 101 102 101 100 100 101 102 101 98 95 94 97 101 103 102 100 98 98 100 100 98 95 93 92 93 94 95 95 97 99 102 102 102 102 102 101 101 101 101 101 100 101 101 100 100 101 102 100 95 91 92 95 94 95 99
Wind_Speed
21 21 21 22 22 23 24 26 27 29 30 31 31 32 33 35 36 38 38 39 41 42 43 43 43 44 44 44 44 43 42 43 43 43 44 44 45 46 45 46 47 47 50 52 50 50 52 53 57 63 62 61 65 72 75 75 75 76 77 77 77 76 76
19 18 17 18 19 19 21 22 24 25 26 27 27 28 30 32 34 36 38 39 40 42 42 43 42 42 42 42 42 42 42 42 42 42 44 44 44 45 45 46 47 47 47 50 50 49 51 52 54 58 58 54 55 62 69 72 73 74 76 78 77 76 75
19 17 15 15 15 16 17 18 20 22 23 24 25 26 28 31 33 36 38 39 40 41 41 42 41 41 41 41 41 40 39 40 40 41 42 42 42 43 44 45 47 47 46 47 47 47 49 51 53 56 56 52 50 53 61 68 71 72 74 76 78 77 75
21 18 16 14 12 12 13 14 16 18 20 21 23 25 27 30 33 35 37 39 40 40 41 41 41 40 40 40 38 37 37 37 37 38 39 39 39 40 42 42 43 46 46 46 46 45 45 47 50 53 52 49 49 50 55 62 67 69 71 73 76 77 77
23 22 20 17 14 11 9 9 11 14 16 18 21 24 27 30 33 35 37 39 40 40 41 40 40 39 38 36 35 35 36 35 35 35 35 35 35 36 38 38 40 42 43 44 45 44 42 41 44 48 48 44 46 49 52 58 61 63 67 70 72 74 77
24 24 23 21 18 14 10 7 7 9 12 15 18 22 25 28 32 34 36 38 39 39 40 40 39 37 35 33 35 36 36 35 34 33 32 33 34 35 35 36 37 39 39 40 41 42 41 40 41 44 44 41 42 46 49 55 59 58 60 66 69 69 72
23 23 22 21 20 17 13 10 7 6 9 12 15 18 21 24 28 31 33 35 37 38 39 39 37 35 34 34 36 37 36 35 34 33 33 33 34 34 34 35 36 36 36 37 37 37 38 39 40 42 42 40 40 43 46 51 57 57 55 60 67 68 67
23 22 21 20 19 18 16 13 10 7 7 8 11 14 17 20 22 25 28 31 33 35 36 36 35 34 34 34 35 35 35 35 34 34 34 33 33 32 32 32 32 31 31 34 34 34 35 36 38 39 40 39 39 41 44 46 51 56 54 54 62 68 66
24 23 22 20 18 17 16 14 12 10 8 7 8 10 12 15 18 20 23 25 28 29 31 32 33 33 33 32 33 33 34 34 34 34 34 33 31 30 29 29 29 28 28 31 33 33 34 36 37 37 37 36 37 39 41 41 44 50 53 52 55 64 68
25 24 22 20 18 16 14 12 12 11 10 9 8 7 9 11 13 16 18 21 23 25 26 28 30 31 31 30 31 31 32 32 33 34 34 33 31 29 29 30 30 28 26 28 31 33 34 35 36 34 33 34 34 34 37 40 41 44 50 52 52 57 64
26 25 23 20 18 17 14 12 11 10 10 9 8 7 6 7 9 11 14 16 18 20 22 24 26 28 29 29 29 30 31 32 34 34 34 33 32 30 30 29 29 28 26 28 31 32 33 34 34 33 32 32 31 31 33 37 40 41 44 49 50 52 57
26 26 24 20 17 15 14 12 10 9 9 7 6 6 6 6 7 9 11 13 15 17 19 21 23 25 27 28 28 30 32 33 34 34 33 32 32 32 31 29 28 28 28 28 30 31 31 32 32 31 32 31 29 29 29 32 35 38 41 44 47 49 51
26 26 25 22 17 15 14 13 10 8 8 7 5 5 5 6 6 7 9 11 13 15 17 19 21 23 24 25 27 30 33 34 34 34 34 33 33 35 34 31 30 30 31 30 30 30 31 31 30 29 28 27 26 26 27 29 31 34 37 40 43 45 46
25 26 25 23 18 15 14 15 14 10 8 8 8 7 6 6 6 6 7 8 10 13 16 18 21 23 23 24 25 28 31 34 34 33 33 33 35 38 37 33 31 31 32 33 31 31 30 29 29 29 27 24 25 27 26 26 28 30 32 36 40 42 42
26 26 25 22 18 15 14 15 16 14 12 11 11 11 10 9 8 7 6 5 7 10 14 16 20 23 24 25 26 26 28 31 32 32 32 32 34 36 35 32 31 30 30 31 31 31 31 29 27 27 27 26 28 28 25 23 25 28 29 32 37 40 41
26 26 25 22 18 15 13 14 16 16 15 14 14 14 14 13 12 11 9 7 7 10 13 15 17 21 23 25 26 26 27 29 31 32 32 32 31 31 31 30 29 29 29 29 30 31 33 33 30 28 27 28 29 30 28 26 26 26 26 28 31 36 40
26 26 24 21 19 17 15 13 13 15 16 16 16 16 16 16 15 12 10 9 8 10 13 15 16 19 22 23 24 25 26 28 31 33 34 32 29 28 30 30 28 28 29 29 29 30 32 34 33 32 31 30 29 29 30 30 29 27 26 26 28 32 36
25 24 23 21 20 20 18 14 10 11 14 16 18 18 17 17 16 13 10 9 9 10 12 13 14 16 19 20 21 23 25 28 32 35 36 33 29 29 30 29 27 28 28 28 28 29 30 31 33 34 34 34 33 31 30 32 32 30 28 27 28 30 32
23 22 22 21 21 21 21 18 14 12 12 15 17 18 18 17 16 14 12 12 12 12 13 13 13 14 15 16 18 20 25 29 32 35 36 34 31 30 30 27 26 27 27 26 26 25 26 28 30 32 34 35 34 32 31 31 31 31 31 29 29 29 30
23 22 20 20 20 20 19 18 16 12 11 12 14 17 17 17 16 14 14 14 15 15 13 13 13 12 11 12 14 17 22 28 32 33 34 33 32 31 29 27 27 27 26 26 26 25 26 27 29 31 33 34 33 32 31 31 31 32 32 31 30 29 29
24 22 19 19 19 18 17 17 15 12 10 9 12 14 15 15 15 14 15 15 16 16 13 11 11 9 7 8 11 14 19 25 29 30 31 32 33 31 30 29 28 27 27 28 27 26 27 28 27 28 29 31 32 32 32 31 31 32 32 31 31 30 30
22 21 18 18 18 16 15 15 13 12 11 9 9 12 13 13 13 13 15 15 15 15 12 10 10 9 6 5 7 11 16 21 25 28 29 29 30 30 30 29 28 27 28 28 27 27 27 25 23 22 24 27 30 31 31 31 31 32 32 31 30 30 30
20 19 18 17 15 14 13 13 13 13 12 10 8 9 10 11 12 12 14 14 14 14 12 11 10 9 8 6 6 8 14 19 23 26 27 27 27 28 28 28 28 28 28 28 27 26 25 23 21 20 22 25 27 29 31 32 32 32 32 31 29 29 29
18 18 17 16 14 12 11 11 11 11 12 11 8 7 8 9 10 11 13 14 14 14 13 12 10 10 9 9 9 9 12 16 20 24 25 26 26 27 27 28 28 27 26 25 24 23 23 22 21 21 22 23 25 27 29 31 32 32 31 29 28 27 28
19 18 18 17 15 12 9 10 10 10 12 12 10 8 7 8 9 10 12 14 15 15 15 14 13 12 12 12 12 13 13 15 17 20 22 23 24 25 26 26 25 23 23 23 23 23 24 24 22 21 22 23 24 25 25 26 29 30 28 27 26 26 26
19 20 19 18 18 14 10 9 10 11 12 12 11 10 9 9 9 10 12 14 16 17 17 16 16 15 15 15 15 15 16 17 18 20 21 22 23 24 24 24 23 23 24 25 26 26 26 25 24 23 22 23 23 23 23 23 26 28 27 26 26 25 25
19 21 20 19 19 17 13 10 11 12 12 11 11 10 9 10 10 10 11 13 15 16 17 18 18 18 18 18 18 18 19 20 20 21 23 24 24 25 26 26 25 26 27 29 28 27 26 26 25 24 23 23 22 22 21 22 23 24 25 26 26 26 25
20 21 21 21 20 19 16 13 12 13 13 12 11 10 10 10 10 10 10 11 12 14 15 16 17 18 18 18 19 20 21 22 23 24 25 26 27 28 28 28 29 30 31 32 30 28 26 26 25 24 24 23 22 20 19 19 20 21 22 23 25 26 27
20 20 20 21 21 21 19 15 13 13 15 15 14 13 13 11 10 10 11 10 11 11 12 13 14 15 16 17 17 19 20 21 23 25 26 28 29 30 31 31 32 32 33 34 32 29 27 26 26 25 24 23 21 19 18 18 19 20 20 21 22 24 27
21 21 21 21 21 21 21 19 15 14 15 18 17 15 15 14 11 10 10 10 10 11 11 11 12 13 14 15 15 16 16 18 20 23 25 27 29 31 32 33 34 34 34 34 33 31 30 30 29 27 26 24 21 18 17 18 19 20 20 19 20 22 24
21 22 22 22 22 21 21 20 18 15 16 19 19 16 15 15 13 11 10 10 10 10 10 10 11 13 14 14 14 14 14 15 17 20 22 24 26 28 30 32 34 35 36 35 35 35 35 35 33 30 27 25 22 19 17 18 20 20 20 20 20 20 21
22 22 22 22 22 22 21 20 19 17 17 19 19 17 16 15 13 12 11 11 10 10 10 11 12 13 14 14 14 14 14 15 16 17 19 21 24 25 26 28 30 32 34 35 36 37 38 39 38 33 28 26 24 20 18 19 20 20 20 21 20 20 20
23 22 22 22 22 23 23 21 19 18 18 19 19 18 16 15 13 13 12 12 12 12 12 12 12 13 14 14 14 14 14 14 14 14 16 18 21 22 23 24 26 27 29 30 31 34 37 39 38 32 28 27 25 22 20 19 19 19 20 21 20 20 21
24 24 23 23 23 23 22 21 20 19 19 20 21 19 16 14 13 13 13 12 13 13 12 12 13 13 13 13 13 13 13 13 13 13 14 15 17 19 20 21 22 23 24 25 26 29 33 36 35 31 29 27 26 23 21 20 19 19 19 19 20 21 22
24 25 24 23 22 21 20 19 18 18 18 19 19 17 14 13 13 13 13 12 12 12 12 12 12 12 12 12 12 11 12 12 12 11 12 12 14 15 16 18 19 20 21 22 23 25 28 31 31 30 29 28 26 25 24 21 20 19 18 18 18 20 21
23 24 24 23 21 20 19 17 15 14 15 15 16 15 14 13 12 12 12 12 12 11 11 11 11 11 11 12 12 11 11 11 10 10 10 11 12 13 14 15 16 17 18 19 19 21 24 26 27 28 28 27 27 27 26 25 23 21 20 19 19 20 20
Wind_Direction
307 298 290 282 274 265 259 253 248 246 246 246 246 244 241 238 235 234 233 232 230 232 235 237 239 240 240 242 244 245 246 247 247 247 245 244 243 243 243 243 243 245 247 247 244 244 245 246 249 250 247 244 241 239 238 236 234 234 232 230 229 230 232
327 315 304 293 283 271 261 253 249 246 245 244 241 239 236 233 231 229 229 229 230 233 236 240 242 242 243 244 246 246 246 246 246 246 245 244 243 243 242 242 243 246 248 249 246 243 243 245 249 250 249 246 243 241 239 237 233 231 230 229 227 226 227
348 339 328 315 299 282 266 256 250 246 244 242 239 235 232 230 228 228 228 229 232 235 239 242 245 246 246 247 247 248 247 246 245 245 245 245 244 244 243 242 243 245 248 250 249 246 243 244 248 251 250 246 244 242 240 238 235 231 228 227 226 224 224
5 2 355 344 326 304 281 261 252 247 245 242 239 235 232 231 230 231 232 234 236 239 241 244 246 247 248 248 248 248 247 245 245 244 244 245 244 243 244 243 242 244 246 249 250 249 246 244 247 252 252 248 244 241 239 238 237 234 229 227 226 224 222
16 16 14 9 358 340 313 281 259 249 246 244 241 238 235 234 234 234 236 237 239 241 243 245 246 247 248 247 246 245 244 244 244 242 242 243 243 243 244 244 243 244 246 249 250 250 249 247 248 252 253 250 244 240 238 235 236 236 232 228 226 225 223
19 21 20 18 14 5 349 323 287 260 251 247 244 242 240 238 237 237 238 239 240 242 244 246 248 248 249 248 244 243 242 242 243 242 241 241 242 243 243 244 244 245 246 248 249 250 250 248 248 251 254 253 246 240 237 233 232 235 235 230 226 225 225
18 19 20 20 19 16 9 358 333 294 269 257 251 247 244 243 242 241 241 241 241 242 244 245 247 247 247 245 242 242 241 241 242 243 243 243 243 243 244 245 246 247 248 248 248 249 249 248 249 251 254 254 248 241 238 235 231 231 234 232 228 226 226
13 15 16 18 19 19 18 14 4 339 305 275 262 255 250 247 245 244 243 242 243 243 244 244 244 244 244 243 242 242 241 241 241 243 245 245 243 242 243 245 245 244 246 247 245 245 248 249 250 252 254 253 248 243 240 239 235 231 230 231 230 228 228
4 5 7 8 11 14 16 18 17 6 344 311 280 266 258 252 247 245 243 242 242 244 244 245 244 243 243 242 242 242 241 240 241 243 245 243 239 238 238 238 236 234 237 241 243 244 247 247 248 251 253 251 249 245 243 243 242 237 231 228 228 228 230
358 358 357 356 359 3 6 10 14 14 5 346 316 287 270 262 255 249 246 245 244 244 245 246 247 245 242 241 241 240 240 240 240 242 242 239 234 232 232 229 228 229 231 236 241 243 245 246 245 246 250 251 249 246 245 245 245 242 236 231 227 226 229
357 355 351 347 346 348 351 356 359 3 5 360 343 318 289 271 263 255 250 248 246 245 244 244 247 246 243 240 239 239 239 239 239 239 238 236 231 226 224 224 225 229 232 237 241 243 244 243 241 241 247 253 251 247 246 247 247 246 242 237 232 226 226
353 352 349 345 338 333 333 337 342 342 343 349 352 336 308 283 267 257 251 248 247 246 244 242 242 242 243 242 241 241 240 238 237 234 232 233 228 219 215 219 226 230 233 238 243 244 241 238 236 239 246 251 253 252 249 248 248 246 244 242 238 231 226
347 348 347 344 338 325 317 316 318 319 318 319 324 320 310 297 278 265 258 253 250 248 247 245 242 240 241 243 244 243 239 235 234 231 230 230 224 213 211 219 227 229 230 234 239 239 237 234 235 240 243 244 249 254 252 248 248 246 243 241 240 237 232
340 343 344 342 338 327 312 303 301 298 292 290 293 290 287 285 279 275 271 269 269 266 258 253 250 246 243 243 244 243 239 234 232 229 228 229 221 212 212 222 229 230 231 234 237 237 235 233 235 239 239 238 244 251 252 248 246 245 241 238 236 237 237
335 339 340 340 337 331 317 302 297 293 284 277 277 278 275 271 267 266 265 276 297 296 283 271 261 254 249 245 243 243 240 234 230 226 223 223 218 214 218 226 231 234 237 240 242 240 237 234 235 239 238 237 243 251 254 251 246 243 239 236 233 232 234
332 335 337 337 335 334 326 311 301 296 290 280 273 272 275 275 271 263 257 266 296 305 299 290 276 263 255 249 245 242 240 234 227 221 217 216 216 219 225 229 232 236 241 243 244 242 238 236 236 238 238 237 242 249 252 251 250 247 240 235 234 232 231
332 333 334 336 334 332 330 319 305 296 291 285 278 273 273 277 279 274 266 268 284 295 296 295 287 275 263 254 247 241 236 231 224 218 213 214 219 224 227 228 232 237 241 242 243 243 241 239 239 239 238 238 242 246 248 248 248 248 244 237 234 233 231
333 334 336 337 335 335 335 331 317 295 286 284 281 277 273 273 277 279 275 272 276 284 289 292 294 287 272 260 250 241 231 226 223 218 213 214 219 225 226 227 231 236 239 240 242 243 243 243 242 241 240 240 242 246 249 249 247 246 246 242 238 235 233
338 340 339 338 337 339 339 337 329 308 288 281 280 280 277 273 272 273 269 268 272 281 285 288 295 296 283 266 255 243 228 221 221 220 217 215 219 222 224 227 231 235 237 237 238 241 245 246 246 244 243 241 241 244 248 251 249 245 244 243 242 240 237
344 345 341 337 338 339 338 335 332 322 302 284 278 280 280 276 273 269 263 260 266 276 282 284 290 300 296 278 261 244 227 218 218 221 220 220 223 224 226 230 233 234 233 234 238 243 248 250 249 247 245 242 240 241 244 249 250 247 245 244 244 243 240
346 344 339 335 335 337 339 341 343 340 327 299 278 277 280 279 274 269 263 260 264 272 278 279 284 296 302 289 269 245 225 216 217 220 222 223 226 228 229 232 234 234 234 237 243 250 254 252 250 247 245 241 239 240 242 246 249 249 247 246 246 244 241
344 341 336 332 331 334 341 351 354 349 341 325 294 280 280 281 277 269 265 264 264 269 271 270 272 278 280 279 266 245 227 218 218 223 226 227 229 231 233 235 236 237 239 244 251 256 255 250 243 241 241 240 239 240 241 243 247 248 246 245 244 244 242
339 337 336 331 326 327 339 356 2 352 344 341 323 298 286 282 278 268 262 263 263 265 267 267 268 272 271 263 252 240 231 226 225 229 232 233 234 235 237 239 241 243 247 252 254 253 250 244 238 237 239 240 241 242 242 242 246 248 246 244 243 243 243
336 335 336 333 327 327 337 351 359 352 344 343 337 319 297 282 274 266 259 258 259 261 264 268 271 272 268 259 249 240 233 230 231 234 238 239 240 240 241 243 246 248 250 251 249 248 248 247 244 243 246 248 248 249 248 247 248 250 248 245 244 243 241
337 336 336 334 332 333 338 342 343 342 342 341 336 325 306 284 270 261 254 252 253 255 258 263 267 268 265 259 253 247 240 235 234 235 237 239 239 240 241 242 243 246 246 245 245 248 250 251 250 250 254 257 256 255 254 251 250 250 248 245 245 245 241
339 338 336 332 330 331 337 339 336 335 335 335 332 327 318 303 284 268 258 254 253 255 257 259 261 262 262 260 257 253 248 244 241 240 240 240 240 239 237 233 233 239 245 245 246 249 251 252 254 255 257 260 261 260 258 255 250 249 247 245 246 244 240
339 337 333 329 326 326 328 331 331 330 327 324 324 323 319 313 303 288 274 266 261 260 261 262 262 261 260 259 258 256 253 249 247 245 244 243 242 242 240 235 232 235 240 244 247 251 254 256 256 256 256 257 258 260 260 259 255 251 247 245 245 243 236
332 332 331 327 323 321 321 321 323 324 323 322 324 324 319 312 305 298 291 280 273 269 266 266 267 265 264 262 259 257 255 253 250 248 246 244 243 243 243 242 240 239 241 245 248 250 253 254 254 253 252 253 256 260 261 259 256 253 248 244 242 241 236
322 325 326 325 322 319 318 317 317 319 320 322 326 328 323 313 302 296 293 289 285 280 274 272 271 270 269 268 265 263 260 257 254 251 248 246 245 244 243 243 242 242 243 245 247 246 246 248 249 248 248 250 256 260 259 255 251 249 247 244 241 239 236
317 321 323 324 322 319 316 314 313 313 312 311 315 321 320 313 304 294 289 288 289 287 283 281 279 279 281 279 276 273 268 262 258 254 250 248 246 244 244 243 243 242 243 243 243 243 244 246 248 248 247 248 251 256 256 251 247 245 244 243 240 236 235
315 319 322 323 321 319 313 307 304 301 296 296 302 311 313 309 303 295 287 285 287 288 289 291 291 292 294 293 289 284 276 268 262 256 253 251 249 246 244 242 241 242 242 241 240 239 241 246 249 249 248 245 245 250 252 247 244 243 241 240 237 234 232
312 317 320 320 318 316 310 303 297 290 286 289 295 303 306 304 300 295 286 281 282 286 290 294 297 299 299 299 296 290 282 275 268 261 256 253 251 249 247 243 241 240 239 239 239 237 238 242 246 247 247 243 241 244 246 243 241 239 238 238 234 227 223
311 315 317 318 316 313 309 303 295 287 283 286 292 297 299 297 295 293 288 283 281 284 288 292 295 300 302 302 299 293 285 277 270 264 259 254 251 251 249 246 243 240 237 236 236 235 236 239 241 241 241 240 240 240 240 238 237 234 233 233 230 222 219
312 315 316 316 314 310 306 302 295 288 284 285 288 290 290 288 287 287 286 282 279 278 282 286 291 298 302 302 300 296 288 278 269 263 259 255 251 250 248 246 244 241 237 234 233 232 233 236 236 236 236 237 237 236 235 233 230 228 226 226 224 221 221
308 311 312 311 309 306 302 297 291 285 281 281 283 284 283 281 281 280 279 280 280 280 282 287 292 297 298 298 297 293 285 277 271 266 261 259 255 251 247 245 244 242 239 236 233 230 231 232 232 232 233 234 233 231 229 227 225 223 221 221 221 221 222
306 309 310 309 308 306 303 298 291 285 281 281 283 285 283 281 279 280 280 282 284 285 287 290 293 294 294 293 292 289 284 278 273 269 266 264 260 255 249 245 243 242 240 238 235 230 227 227 227 227 228 230 231 229 227 225 225 224 226 227 226 223 222